Location: Newark
(40.7360°N, 74.1730°W)
Time: 07:40:15
(UTC-04:00)

Amateur Radio Satellites - All Passes

Search period start: 02 September 2014 07:10
Search period end: 03 September 2014 07:10
Location: Newark, 40.7360°N, 74.1730°W

Satellite Date Start Highest point End Downlink Frequencies (MHz)
Time Altitude Azimuth
Saudisat 1A 02 Sep 07:11:25 07:15:51 89° 238° (WSW) 07:20:15 436.775 MHz
KITSAT 1 02 Sep 07:20:20 07:27:48 39° 47° (NE) 07:35:12 435.175 FM
RS-15 02 Sep 07:24:22 07:35:16 65° 115° (ESE) 07:45:58 29.354 - 29.394 USB, Beacon 29.352 USB
AO-7 02 Sep 07:26:25 07:32:36 24° 306° (NW) 07:38:47 29.400 - 29.500 MHz
STRAND 1 02 Sep 07:43:13 07:47:46 32° 263° (W) 07:52:20 ?
Hamsat 02 Sep 07:59:24 08:02:37 21° 293° (WNW) 08:05:49 145.90 MHz
JAS-2 02 Sep 08:13:54 08:18:13 26° 293° (WNW) 08:22:48 435.800 - 435.900 CW/SSB, 435.910 FM
HO-68 02 Sep 08:19:20 08:20:38 11° 87° (E) 08:21:57 435.675 MHz FM
SO-67 02 Sep 08:37:55 08:41:06 35° 287° (WNW) 08:44:16 435.3500 MHz FM
KITSAT 1 02 Sep 09:15:40 09:23:26 54° 248° (WSW) 09:31:10 435.175 FM
RS-15 02 Sep 09:38:02 09:48:12 41° 319° (NW) 09:58:23 29.354 - 29.394 USB, Beacon 29.352 USB
ISS 02 Sep 09:48:05 09:51:22 67° 141° (SE) 09:54:41 145.800 FM
UKube-1 02 Sep 09:57:14 10:01:13 34° 98° (E) 10:05:10 145.840 MHz, 145.915 MHz
Oscar 11 02 Sep 10:00:44 10:04:23 25° 95° (E) 10:08:00 145.825 FM, Beacon 2401.500 USB
HO-68 02 Sep 10:02:20 10:09:30 71° 104° (ESE) 10:16:38 435.675 MHz FM
SO-50 02 Sep 10:16:45 10:18:27 12° 35° (NE) 10:20:09 436.795 FM
FUNcube-1 02 Sep 10:33:48 10:37:32 24° 95° (E) 10:41:17 145.950 - 145.970 MHz USB
ISS 02 Sep 11:25:41 11:28:22 22° 339° (NNW) 11:31:03 145.800 FM
PANSAT 02 Sep 11:32:43 11:34:16 12° 173° (S) 11:35:48 not established
UKube-1 02 Sep 11:33:55 11:37:12 21° 294° (WNW) 11:40:28 145.840 MHz, 145.915 MHz
Oscar 11 02 Sep 11:36:47 11:40:31 28° 291° (WNW) 11:44:13 145.825 FM, Beacon 2401.500 USB
HO-68 02 Sep 11:51:10 11:56:32 24° 302° (WNW) 12:01:54 435.675 MHz FM
SO-50 02 Sep 11:55:11 11:59:57 63° 55° (NE) 12:04:46 436.795 FM
RS-15 02 Sep 11:57:18 12:04:45 20° 352° (N) 12:12:16 29.354 - 29.394 USB, Beacon 29.352 USB
UOSAT-12 02 Sep 12:01:42 12:02:42 11° 34° (NNE) 12:03:42 437.025 FM, 437.400 FM
FUNcube-1 02 Sep 12:09:52 12:13:55 32° 290° (WNW) 12:18:00 145.950 - 145.970 MHz USB
Oscar 19 02 Sep 12:18:49 12:21:45 15° 61° (ENE) 12:24:41 437.125 CW, 437.150 USB
JAS-1B 02 Sep 12:26:27 12:32:25 19° 56° (NE) 12:37:57 435.800 - 435.900 CW/SSB
Oscar 16 02 Sep 12:52:17 12:56:48 32° 67° (ENE) 13:01:21 437.025 USB, Beacon 2401.1428
MaSat-1 02 Sep 12:55:22 13:00:17 85° 114° (ESE) 13:05:29 437.345 MHz
ITAMSAT 1 02 Sep 12:57:33 13:00:33 16° 61° (ENE) 13:03:33 435.822 SSB
ISS 02 Sep 13:04:28 13:06:03 13° 359° (N) 13:07:37 145.800 FM
Uribyol 2 02 Sep 13:05:59 13:09:38 20° 63° (ENE) 13:13:18 436.500 FM
PANSAT 02 Sep 13:11:58 13:13:41 13° 186° (S) 13:15:24 not established
AO-27 02 Sep 13:25:42 13:30:05 29° 66° (ENE) 13:34:28 436.795 MHz FM
SO-50 02 Sep 13:37:10 13:40:02 16° 251° (WSW) 13:42:54 436.795 FM
UOSAT-12 02 Sep 13:39:14 13:43:54 56° 54° (NE) 13:48:29 437.025 FM, 437.400 FM
Oscar 19 02 Sep 13:55:20 14:00:29 70° 258° (WSW) 14:05:41 437.125 CW, 437.150 USB
AO-Echo 02 Sep 14:00:09 14:05:06 63° 74° (ENE) 14:09:54 ?
Gurwin Techsat 1B 02 Sep 14:09:41 14:14:22 33° 68° (ENE) 14:19:03 435.225 FM
JAS-1B 02 Sep 14:12:06 14:21:50 78° 73° (ENE) 14:30:27 435.800 - 435.900 CW/SSB
RS-15 02 Sep 14:13:22 14:22:24 28° 28° (NNE) 14:31:36 29.354 - 29.394 USB, Beacon 29.352 USB
Oscar 16 02 Sep 14:31:33 14:36:05 31° 264° (W) 14:40:40 437.025 USB, Beacon 2401.1428
ITAMSAT 1 02 Sep 14:34:19 14:39:28 68° 258° (WSW) 14:44:38 435.822 SSB
MaSat-1 02 Sep 14:34:58 14:38:00 16° 313° (NW) 14:41:04 437.345 MHz
AO-7 02 Sep 14:40:54 14:47:10 25° 54° (NE) 14:53:24 29.400 - 29.500 MHz
ISS 02 Sep 14:41:12 14:43:45 20° 19° (NNE) 14:46:18 145.800 FM
Uribyol 2 02 Sep 14:43:42 14:48:42 52° 260° (W) 14:53:45 436.500 FM
Uosat F 02 Sep 14:56:30 14:58:33 13° 59° (ENE) 15:00:36 435.120 FM
TMSAT-1 02 Sep 14:58:37 15:03:51 67° 74° (ENE) 15:09:07 436.925 FM
AO-27 02 Sep 15:04:46 15:09:27 35° 263° (W) 15:14:11 436.795 MHz FM
Sapphire 02 Sep 15:09:46 15:11:53 12° 102° (ESE) 15:13:59 437.095 MHz 1200 baud AX-25 AFSK
UOSAT-12 02 Sep 15:20:35 15:23:35 17° 251° (WSW) 15:26:34 437.025 FM, 437.400 FM
PCSat 02 Sep 15:36:21 15:40:40 25° 107° (ESE) 15:45:00 145.825 MHz
AO-Echo 02 Sep 15:41:41 15:44:14 14° 269° (W) 15:46:45 ?
Gurwin Techsat 1B 02 Sep 15:49:37 15:54:17 31° 264° (W) 15:58:58 435.225 FM
JAS-1B 02 Sep 16:05:11 16:12:46 26° 268° (W) 16:19:50 435.800 - 435.900 CW/SSB
ISS 02 Sep 16:17:30 16:20:50 83° 217° (SW) 16:24:10 145.800 FM
RS-15 02 Sep 16:25:48 16:36:55 76° 56° (NE) 16:48:29 29.354 - 29.394 USB, Beacon 29.352 USB
OPAL 02 Sep 16:27:06 16:30:25 17° 94° (E) 16:33:43 ?
AO-7 02 Sep 16:30:43 16:39:04 81° 253° (WSW) 16:47:26 29.400 - 29.500 MHz
Uosat F 02 Sep 16:31:37 16:36:38 83° 256° (WSW) 16:41:40 435.120 FM
TMSAT-1 02 Sep 16:41:23 16:44:15 15° 270° (W) 16:47:08 436.925 FM
JAS-2 02 Sep 16:42:37 16:46:10 17° 63° (ENE) 16:49:33 435.800 - 435.900 CW/SSB, 435.910 FM
Sapphire 02 Sep 16:49:06 16:54:30 84° 299° (WNW) 16:59:58 437.095 MHz 1200 baud AX-25 AFSK
Hamsat 02 Sep 17:16:14 17:19:47 25° 68° (ENE) 17:23:22 145.90 MHz
PCSat 02 Sep 17:18:36 17:23:46 46° 305° (NW) 17:29:00 145.825 MHz
OPAL 02 Sep 18:04:31 18:09:40 60° 290° (WNW) 18:14:45 ?
JAS-2 02 Sep 18:24:48 18:30:51 68° 258° (WSW) 18:36:18 435.800 - 435.900 CW/SSB, 435.910 FM
AO-7 02 Sep 18:28:42 18:33:00 15° 271° (W) 18:37:20 29.400 - 29.500 MHz
Sapphire 02 Sep 18:35:38 18:38:46 15° 319° (NW) 18:41:55 437.095 MHz 1200 baud AX-25 AFSK
RS-15 02 Sep 18:39:17 18:48:15 30° 256° (WSW) 18:57:34 29.354 - 29.394 USB, Beacon 29.352 USB
Hamsat 02 Sep 18:51:54 18:55:38 28° 265° (W) 18:59:25 145.90 MHz
SO-67 02 Sep 19:10:08 19:13:34 65° 76° (ENE) 19:17:01 435.3500 MHz FM
STRAND 1 02 Sep 19:53:20 19:58:28 86° 104° (ESE) 20:03:35 ?
HO-68 02 Sep 20:30:21 20:37:11 52° 67° (ENE) 20:44:03 435.675 MHz FM
UKube-1 02 Sep 20:52:40 20:56:26 30° 69° (ENE) 21:00:13 145.840 MHz, 145.915 MHz
Oscar 11 02 Sep 20:56:01 20:59:13 21° 66° (ENE) 21:02:27 145.825 FM, Beacon 2401.500 USB
MaSat-1 02 Sep 21:14:18 21:17:33 19° 49° (NE) 21:20:30 437.345 MHz
Saudisat 1A 02 Sep 21:18:16 21:21:51 25° 113° (ESE) 21:25:28 436.775 MHz
FUNcube-1 02 Sep 21:30:55 21:33:49 18° 66° (ENE) 21:36:46 145.950 - 145.970 MHz USB
STRAND 1 02 Sep 21:34:54 21:36:55 12° 301° (WNW) 21:38:56 ?
KITSAT 1 02 Sep 21:50:04 21:56:08 24° 104° (ESE) 22:02:12 435.175 FM
HO-68 02 Sep 22:19:02 22:25:07 30° 264° (W) 22:31:14 435.675 MHz FM
UKube-1 02 Sep 22:29:08 22:32:38 24° 265° (W) 22:36:09 145.840 MHz, 145.915 MHz
Oscar 11 02 Sep 22:31:11 22:35:10 36° 263° (W) 22:39:12 145.825 FM, Beacon 2401.500 USB
MaSat-1 02 Sep 22:50:39 22:54:51 43° 251° (WSW) 22:58:28 437.345 MHz
Saudisat 1A 02 Sep 22:57:13 23:01:16 35° 310° (NW) 23:05:21 436.775 MHz
FUNcube-1 02 Sep 23:06:01 23:09:55 38° 262° (W) 23:13:56 145.950 - 145.970 MHz USB
KITSAT 1 02 Sep 23:42:39 23:50:44 74° 302° (WNW) 23:58:51 435.175 FM
Sapphire 02 Sep 23:55:46 23:58:26 14° 39° (NE) 00:01:06 437.095 MHz 1200 baud AX-25 AFSK
PCSat 03 Sep 00:23:55 00:28:07 22° 46° (NE) 00:32:18 145.825 MHz
Oscar 16 03 Sep 01:06:50 01:07:58 11° 88° (E) 01:09:06 437.025 USB, Beacon 2401.1428
Sapphire 03 Sep 01:37:24 01:42:51 72° 60° (ENE) 01:48:15 437.095 MHz 1200 baud AX-25 AFSK
KITSAT 1 03 Sep 01:41:45 01:47:37 21° 326° (NW) 01:53:30 435.175 FM
JAS-1B 03 Sep 02:01:53 02:05:44 17° 87° (E) 02:09:21 435.800 - 435.900 CW/SSB
PCSat 03 Sep 02:06:36 02:11:57 61° 245° (WSW) 02:17:16 145.825 MHz
Oscar 19 03 Sep 02:07:23 02:12:20 43° 98° (E) 02:17:14 437.125 CW, 437.150 USB
AO-Echo 03 Sep 02:08:31 02:11:52 19° 93° (E) 02:15:15 ?
SO-50 03 Sep 02:11:12 02:14:30 20° 111° (ESE) 02:17:50 436.795 FM
Gurwin Techsat 1B 03 Sep 02:27:47 02:30:05 13° 89° (E) 02:32:22 435.225 FM
Oscar 16 03 Sep 02:42:43 02:47:58 86° 285° (WNW) 02:53:09 437.025 USB, Beacon 2401.1428
ITAMSAT 1 03 Sep 02:47:34 02:52:31 44° 99° (E) 02:57:27 435.822 SSB
Uribyol 2 03 Sep 02:56:31 03:01:39 57° 101° (E) 03:06:45 436.500 FM
TMSAT-1 03 Sep 03:15:16 03:19:45 27° 95° (E) 03:24:12 436.925 FM
AO-27 03 Sep 03:17:24 03:22:37 86° 104° (ESE) 03:27:49 436.795 MHz FM
Sapphire 03 Sep 03:22:37 03:25:36 15° 256° (WSW) 03:28:35 437.095 MHz 1200 baud AX-25 AFSK
OPAL 03 Sep 03:41:16 03:45:39 30° 64° (ENE) 03:50:05 ?
AO-Echo 03 Sep 03:46:25 03:50:50 42° 289° (WNW) 03:55:17 ?
Oscar 19 03 Sep 03:47:19 03:51:24 24° 295° (WNW) 03:55:28 437.125 CW, 437.150 USB
SO-50 03 Sep 03:50:27 03:54:43 43° 308° (NW) 03:59:07 436.795 FM
JAS-1B 03 Sep 03:50:44 03:57:15 65° 289° (WNW) 04:02:58 435.800 - 435.900 CW/SSB
UOSAT-12 03 Sep 03:51:41 03:54:43 18° 109° (ESE) 03:57:47 437.025 FM, 437.400 FM
Gurwin Techsat 1B 03 Sep 04:05:17 04:10:37 77° 286° (WNW) 04:15:54 435.225 FM
Oscar 16 03 Sep 04:24:53 04:26:29 11° 302° (WNW) 04:28:05 437.025 USB, Beacon 2401.1428
ITAMSAT 1 03 Sep 04:27:42 04:31:44 23° 295° (WNW) 04:35:45 435.822 SSB
AO-7 03 Sep 04:33:04 04:40:31 35° 98° (E) 04:47:53 29.400 - 29.500 MHz
Uribyol 2 03 Sep 04:37:09 04:40:39 19° 298° (WNW) 04:44:10 436.500 FM
Uosat F 03 Sep 04:40:00 04:44:25 31° 97° (E) 04:48:49 435.120 FM
TMSAT-1 03 Sep 04:54:53 04:59:43 37° 291° (WNW) 05:04:32 436.925 FM
AO-27 03 Sep 04:59:13 05:01:24 13° 301° (WNW) 05:03:35 436.795 MHz FM
OPAL 03 Sep 05:19:51 05:24:25 33° 261° (W) 05:29:04 ?
UOSAT-12 03 Sep 05:29:54 05:34:25 53° 306° (NW) 05:39:03 437.025 FM, 437.400 FM
STRAND 1 03 Sep 05:32:40 05:35:33 15° 61° (ENE) 05:38:25 ?
JAS-2 03 Sep 05:35:28 05:37:51 13° 91° (E) 05:40:17 435.800 - 435.900 CW/SSB, 435.910 FM
KITSAT 1 03 Sep 05:41:51 05:46:40 17° 27° (NNE) 05:51:29 435.175 FM
Saudisat 1A 03 Sep 05:44:52 05:48:20 22° 45° (NE) 05:51:46 436.775 MHz
Gurwin Techsat 1B 03 Sep 05:48:57 05:49:39 10° 303° (WNW) 05:50:22 435.225 FM
Uosat F 03 Sep 06:18:48 06:23:08 30° 293° (WNW) 06:27:28 435.120 FM
AO-7 03 Sep 06:25:34 06:33:29 52° 296° (WNW) 06:41:23 29.400 - 29.500 MHz
Hamsat 03 Sep 06:37:18 06:41:33 51° 99° (E) 06:45:43 145.90 MHz
RS-15 03 Sep 06:49:00 06:59:28 50° 111° (ESE) 07:09:44 29.354 - 29.394 USB, Beacon 29.352 USB
